Regional Weather Roundup
Issued by NWS

Home | Current Version | Previous Version | Graphics & Text | Print | Product List | Glossary On
Versions: 1 2 3 4 5 6 7 8 9 10 11 12 13 14 15 16 17 18 19 20 21 22 23 24 25 26 27 28 29 30 31 32 33 34 35 36 37 38 39 40 41 42 43 44 45 46 47 48 49 50
000
ASUS43 KOAX 010102
RWRNE

WEATHER ROUNDUP FOR NEBRASKA
NATIONAL WEATHER SERVICE OMAHA NE
700 PM CST SAT JAN 31 2015

NOTES: SATELLITE DATA IS BEING USED TO AUGMENT CLOUD COVER ABOVE
       12000 FEET.
       "FAIR" INDICATES FEW OR NO CLOUDS BELOW 12,000 FEET WITH NO
       SIGNIFICANT WEATHER AND/OR OBSTRUCTIONS TO VISIBILITY.

  * THESE STATIONS DO NOT REPORT WEATHER SUCH AS RAIN...SNOW OR FOG.

NEZ001>004-019>022-054>056-010200-
NEBRASKA PANHANDLE

CITY           SKY/WX    TMP DP  RH WIND       PRES   REMARKS
SCOTTSBLUFF    CLOUDY    31  28  89 NE12      29.89R WCI  22
ALLIANCE       LGT SNOW  24  22  91 NE16      29.89R FOG     WCI  11
CHADRON        FOG       24  22  91 NE15      29.98R VSB 1/2 WCI  11
SIDNEY         CLOUDY    30  28  92 N10       29.84S WCI  21
$$

NEZ057>060-069>072-079>082-010200-
SOUTHWEST NEBRASKA

CITY           SKY/WX    TMP DP  RH WIND       PRES   REMARKS
NORTH PLATTE   LGT SNOW  28  25  88 NE13      29.86R FOG     WCI  17
IMPERIAL       LGT SNOW  32  30  92 N10       29.83R FOG     WCI  24
MCCOOK         LGT SNOW  33  31  92 N7        29.82R FOG     WCI  27
$$

NEZ005>010-023>029-035>040-094-010200-
NORTH CENTRAL NEBRASKA

CITY           SKY/WX    TMP DP  RH WIND       PRES   REMARKS
VALENTINE      LGT SNOW  19  16  88 NE14      30.00R VSB 3/4 WCI   6
BROKEN BOW     LGT SNOW  29  26  89 N13       29.87R FOG     WCI  19
ORD            LGT SNOW  30  28  92 N12       29.88R VSB 1   WCI  20
$$

NEZ041-046>049-061>064-073>077-083>087-010200-
SOUTH CENTRAL NEBRASKA

CITY           SKY/WX    TMP DP  RH WIND       PRES   REMARKS
GRAND ISLAND   LGT SNOW  32  31  96 NE6       29.87F VSB 3/4 WCI  26
HASTINGS       LGT SNOW  32  30  92 E5        29.84F VSB 1   WCI  27
KEARNEY *      CLOUDY    30  28  93 NE7       29.85S WCI  23
$$

NEZ011>018-030>034-042>045-010200-
NORTHEAST NEBRASKA

CITY           SKY/WX    TMP DP  RH WIND       PRES   REMARKS
NORFOLK        LGT SNOW  33  32  96 E7        29.91F FOG     WCI  27
TEKAMAH        LGT SNOW  33  32  96 E7        29.96F FOG     WCI  27
$$

NEZ050>053-065>068-078-088>093-010200-
SOUTHEAST NEBRASKA

CITY           SKY/WX    TMP DP  RH WIND       PRES   REMARKS
LINCOLN        LGT SNOW  33  32  96 CALM      29.93S FOG
OMAHA EPPLEY   LGT SNOW  33  32  96 SE6       29.95F FOG     WCI  28
FALLS CITY     LGT SNOW  32  32 100 SE9       29.95F VSB 1   WCI  24
$$

NEZ044-045-051>053-067-010200-
OMAHA AREA

CITY           SKY/WX    TMP DP  RH WIND       PRES   REMARKS
OMAHA EPPLEY   LGT SNOW  33  32  96 SE6       29.95F FOG     WCI  28
$$



USA.gov is the U.S. government's official web portal to all federal, state and local government web resources and services.